Regional Weather Roundup
Issued by NWS

Home | Current Version | Previous Version | Graphics & Text | Print | Product List | Glossary On
Versions: 1 2 3 4 5 6 7 8 9 10 11 12 13 14 15 16 17 18 19 20 21 22 23 24 25 26 27 28 29 30 31 32 33 34 35 36 37 38 39 40 41 42 43 44 45 46 47 48 49 50
000
ASUS43 KLMK 181002
RWRKY
KENTUCKY REGIONAL WEATHER ROUNDUP
NATIONAL WEATHER SERVICE LOUISVILLE KY
500 AM EST SAT NOV 18 2017

NOTE "FAIR" INDICATES FEW OR NO CLOUDS BELOW 12,000 FEET
WITH NO SIGNIFICANT WEATHER AND/OR OBSTRUCTIONS TO VISIBILITY.

KYZ001>023-026-027-061>063-070>075-181100-
WESTERN AND SOUTH CENTRAL KENTUCKY

CITY           SKY/WX    TMP DP  RH WIND       PRES   REMARKS
PADUCAH        CLOUDY    67  56  67 S9G17     29.60F
HENDERSON      CLOUDY    63  55  75 S17G28    29.60F
OWENSBORO      CLOUDY    62  53  72 S17       29.63F
HOPKINSVILLE   CLOUDY    63  54  71 S15G23    29.70F
BOWLING GREEN  CLOUDY    61  47  59 S22G31    29.73F
GLASGOW        NOT AVBL
$$

KYZ024-025-028>034-038-045-046-053-181100-
NORTH CENTRAL KENTUCKY

CITY           SKY/WX    TMP DP  RH WIND       PRES   REMARKS
LOUISVILLE/SDF CLOUDY    63  47  55 S15G25    29.66F
LOUISVILLE/LOU CLOUDY    62  48  60 S15G30    29.67F
FORT KNOX      CLOUDY    61  47  62 S18G26    29.66S
$$

KYZ035>037-039>044-047>052-055>060-089>105-181100-
NORTHEAST KENTUCKY

CITY           SKY/WX    TMP DP  RH WIND       PRES   REMARKS
LEXINGTON      CLOUDY    59  43  55 S20G33    29.71F
COVINGTON      CLOUDY    55  45  68 S17G25    29.63F
FRANKFORT      CLOUDY    60  44  55 S15G31    29.68F
$$

KYZ054-064>069-076>088-106>120-181100-
SOUTHEAST KENTUCKY

CITY           SKY/WX    TMP DP  RH WIND       PRES   REMARKS
JACKSON        CLOUDY    57  35  43 S9G21     29.78F
LONDON         CLOUDY    58  37  45 S13       29.83F
SOMERSET       NOT AVBL
MIDDLESBORO    CLOUDY    56  39  53 SW8       29.92F
MONTICELLO     CLOUDY    59  41  51 S9G17     29.83F
$$




USA.gov is the U.S. government's official web portal to all federal, state and local government web resources and services.